Retour au catalogue

CZ-3B R/B

ActifHEO
NORAD 63362·ROCKET BODY·🇨🇳 China

Lancé Mar 26, 2025 depuis Xichang Satellite Launch Center

Loading…

Prochains Passages (prochaines 24 heures)

TLE

FraisSource: Space-Track

Époque: Sep 12, 2026, 23:31 UTC

1 63362U 25062B   26255.97998818  .00069204  22588-6  72766-3 0  9997
2 63362  26.8388 157.3157 6666866 256.6246  26.3206  3.16294637 15175

Suivez CZ-3B R/B en temps réel avec AllMySat

Download on the App Store